User: anonymous   Login
Location: Unspecified
(0.0000°N, 0.0000°E)
Time: 01:58:47
(UTC+00:00)
Language:

CHUBUSAT 3 - Orbit

View from above orbital plane
View from above orbital plane
View from above satellite
View from above satellite

Ground track
Ground track

The orbit data is extracted from the following two-line orbital elements,

1 41339U 16012C   17325.05978055  .00000485  00000-0  31147-4 0  9994
2 41339  31.0090 194.7669 0013840 180.3481 179.7156 15.00066920 96547
Epoch (UTC): 21 November 2017 01:26:05
Eccentricity: 0.0013840
inclination: 31.0090°
perigee height: 557 km
apogee height: 576 km
right ascension of ascending node: 194.7669°
argument of perigee: 180.3481°
revolutions per day: 15.00066920
mean anomaly at epoch: 179.7156°
orbit number at epoch: 9654

The dashed part of the orbit path shows where the satellite is in the earth's shadow,  

DLR